Columbia, SC

4:52 AM EST on February 12, 2016 (GMT -0500)
Columbia Owens Downtown

Weather History for KCUB - January, 2013

Change the Weather History Date:

Friday, January 25, 2013

  Actual Average Record
Temperature  
Mean Temperature 32 °F 46 °F  
Max Temperature 36 °F 57 °F 72 °F (1999)
Min Temperature 28 °F 36 °F 15 °F (2014)
Degree Days  
Heating Degree Days 33 19  
Month to date heating degree days 317 487  
Since 1 July heating degree days 1110 1387  
Cooling Degree Days 0 0  
Month to date cooling degree days 21 0  
Year to date cooling degree days 21 0  
Moisture  
Dew Point 13 °F    
Average Humidity 46    
Maximum Humidity 69    
Minimum Humidity 29    
Precipitation  
Precipitation T in 0.14 in 0.24 in (2011)
Month to date precipitation 0.98 2.79  
Year to date precipitation 0.98 2.79  
Sea Level Pressure  
Sea Level Pressure 30.34 in    
Wind  
Wind Speed 2 mph (SE)    
Max Wind Speed 7 mph    
Max Gust Speed 10 mph    
Visibility 10 miles    
Events      
T = Trace of Precipitation, MM = Missing Value Source: NWS Daily Summary

Daily Weather History Graph

Daily Weather History Graph

Search for Another Location

Airport or City:

Trip Planner

Search our weather history database for the weather conditions in past years. The results will help you decide how hot, cold, wet, or windy it might be!

Date:

Astronomy

Jan. 25, 2013 Rise Set
Actual Time 7:25 AM EST 5:47 PM EST
Civil Twilight 6:58 AM EST 6:14 PM EST
Nautical Twilight 6:28 AM EST 6:44 PM EST
Astronomical Twilight 5:58 AM EST 7:14 PM EST
Moon 4:43 PM EST (1/25) 6:03 AM EST (1/25)
Length of Visible Light 11h 15m
Length of Day
10h 22m
Waxing Gibbous, 98% of the Moon is Illuminated
Jan 25
Waxing Gibbous
Jan 26
Full
Feb 3
Last Quarter
Feb 10
New
Feb 17
First Quarter

Hourly Weather History & Observations

Time (EST) Temp. Windchill Dew Point Humidity Pressure Visibility Wind Dir Wind Speed Gust Speed Precip Events Conditions
12:53 AM 30.9 °F 26.2 °F 6.1 °F 35% 30.51 in 10.0 mi ENE 4.6 mph - N/A   Clear
1:53 AM 30.0 °F 26.5 °F 8.1 °F 40% 30.51 in 10.0 mi ENE 3.5 mph - N/A   Clear
2:53 AM 30.0 °F - 10.0 °F 43% 30.53 in 10.0 mi Calm Calm - N/A   Clear
3:53 AM 28.9 °F 23.9 °F 10.9 °F 47% 30.49 in 10.0 mi Variable 4.6 mph - N/A   Clear
4:53 AM 28.0 °F - 10.9 °F 49% 30.49 in 10.0 mi Calm Calm - N/A   Clear
5:53 AM 28.0 °F - 10.0 °F 47% 30.48 in 10.0 mi Calm Calm - N/A   Clear
6:53 AM 28.0 °F - 10.0 °F 47% 30.48 in 10.0 mi Calm Calm - N/A   Partly Cloudy
7:53 AM 28.9 °F 25.2 °F 9.0 °F 43% 30.46 in 10.0 mi ENE 3.5 mph - N/A   Overcast
8:53 AM 28.9 °F 22.8 °F 6.1 °F 38% 30.46 in 10.0 mi ENE 5.8 mph - N/A   Overcast
9:53 AM 30.9 °F 27.5 °F 6.1 °F 35% 30.44 in 10.0 mi East 3.5 mph - N/A   Overcast
10:53 AM 30.9 °F 27.5 °F 6.1 °F 35% 30.42 in 10.0 mi Variable 3.5 mph - N/A   Overcast
11:24 AM 32.0 °F - 6.8 °F 35% 30.39 in 10.0 mi Calm Calm - N/A   Overcast
11:53 AM 32.0 °F 28.7 °F 8.1 °F 37% 30.37 in 10.0 mi East 3.5 mph - N/A   Overcast
12:53 PM 32.0 °F - 9.0 °F 38% 30.32 in 10.0 mi Calm Calm - N/A   Overcast
1:53 PM 33.1 °F 30.0 °F 10.9 °F 40% 30.28 in 10.0 mi SSE 3.5 mph - N/A   Overcast
2:53 PM 33.1 °F 30.0 °F 12.0 °F 42% 30.26 in 10.0 mi SSW 3.5 mph - N/A   Overcast
3:53 PM 34.0 °F - 12.9 °F 42% 30.26 in 10.0 mi Calm Calm - N/A   Overcast
4:53 PM 33.1 °F - 17.1 °F 52% 30.24 in 10.0 mi Calm Calm - 0.00 in   Overcast
5:53 PM 33.1 °F 28.7 °F 17.1 °F 52% 30.20 in 10.0 mi South 4.6 mph - N/A   Overcast
6:30 PM 33.8 °F 30.8 °F 17.6 °F 52% 30.20 in 10.0 mi SW 3.5 mph - N/A   Overcast
6:53 PM 34.0 °F 29.8 °F 17.1 °F 50% 30.21 in 10.0 mi WSW 4.6 mph - N/A   Overcast
7:53 PM 35.1 °F - 18.0 °F 50% 30.20 in 10.0 mi Calm Calm - N/A   Overcast
8:53 PM 36.0 °F - 19.0 °F 50% 30.18 in 10.0 mi Calm Calm - N/A   Overcast
9:53 PM 36.0 °F 33.3 °F 19.9 °F 52% 30.17 in 10.0 mi SSW 3.5 mph - N/A   Overcast
10:53 PM 34.0 °F - 24.1 °F 67% 30.19 in 10.0 mi Calm Calm - N/A   Overcast
11:53 PM 34.0 °F 31.0 °F 24.1 °F 67% 30.18 in 10.0 mi NNW 3.5 mph - N/A   Overcast